Wind_Speed
18 20 22 21 24 25 26 26 26 29 31 30 26 23 20 18 20 18 20 20 18 19 17 11 10 14 13 13 15 4 9 19 20 22 22 18 16 9 5 7 11 3 4 9 14 17 16
21 20 23 23 24 24 25 26 27 29 27 26 24 20 20 21 22 21 20 18 20 21 19 15 8 15 14 12 15 12 8 21 23 20 20 21 12 12 5 4 7 3 14 10 13 9 8
21 24 24 27 26 26 30 29 29 27 27 25 22 21 20 19 21 22 22 20 19 19 16 17 8 13 16 22 5 11 10 16 18 18 17 24 8 12 7 2 4 3 2 3 6 6 4
23 24 26 25 27 27 28 29 29 26 25 23 22 20 19 19 20 18 19 19 18 17 14 20 12 15 9 18 9 14 15 13 11 13 19 20 15 9 5 3 2 3 4 1 4 4 9
22 24 24 25 28 26 28 28 25 25 23 21 20 19 18 16 18 17 17 17 11 12 14 17 11 12 5 12 22 16 20 18 14 13 16 19 17 6 5 5 2 4 2 4 7 11 6
24 26 27 25 27 27 27 27 25 24 23 22 21 19 17 17 17 16 14 15 14 13 11 10 9 7 8 12 26 18 16 12 12 19 14 7 4 3 2 3 6 5 2 3 6 4 1
24 25 27 26 28 28 28 26 26 25 22 23 22 20 18 19 18 16 13 11 3 1 12 8 9 5 1 13 23 19 18 14 13 9 5 3 2 7 9 3 4 5 2 4 5 6 4
23 26 24 27 29 27 28 27 25 27 21 26 23 22 19 18 15 14 6 2 7 4 4 17 13 3 3 18 17 24 21 11 7 5 6 4 4 4 4 4 2 2 6 6 6 3 3
25 26 26 29 29 27 28 27 26 26 27 24 19 18 15 13 14 4 6 4 7 7 1 5 8 10 17 17 10 23 19 10 7 7 5 5 4 9 5 3 5 4 4 3 5 6 0
23 26 28 29 30 27 28 26 29 27 27 21 20 17 18 17 13 5 4 6 4 3 3 4 7 8 11 12 4 21 16 12 3 8 5 2 3 9 6 4 5 2 1 2 2 3 4
24 26 28 27 30 29 30 28 29 31 25 24 21 21 20 19 13 12 5 7 4 4 4 5 8 21 12 0 21 13 11 4 6 6 5 4 5 7 4 3 4 3 3 3 2 3 4
24 26 28 28 30 29 30 29 32 29 27 27 26 26 23 17 10 15 8 1 1 4 3 4 7 10 7 9 3 18 6 4 6 5 7 2 2 3 5 3 4 6 4 6 4 3 2
22 26 28 30 30 31 30 32 32 32 30 29 25 14 7 3 1 10 8 8 4 2 3 6 9 14 10 4 5 9 6 3 4 5 4 2 2 1 4 6 4 5 5 3 4 2 6
22 26 27 30 27 30 32 33 33 34 33 20 21 13 9 8 9 14 8 1 3 2 5 11 10 13 6 6 9 8 8 3 2 5 4 4 2 6 3 4 5 4 6 4 5 2 4
22 25 28 28 29 30 31 33 36 36 21 14 21 25 23 19 16 11 3 3 1 3 4 10 12 8 5 4 6 5 2 5 3 3 5 4 2 2 3 3 6 3 2 3 2 2 3
23 24 27 28 28 29 31 34 37 24 16 16 19 27 21 14 8 3 2 4 3 3 12 8 4 1 5 4 5 4 7 4 3 8 2 4 4 2 2 4 2 4 5 3 3 1 4
22 23 26 28 29 29 31 33 31 16 14 12 15 9 11 9 6 3 2 3 3 6 4 2 4 4 4 5 5 4 11 3 8 5 7 1 4 1 5 4 6 3 1 3 3 4 3
21 22 25 26 31 29 29 31 23 13 10 5 8 3 3 8 3 1 2 3 4 2 5 3 3 6 5 4 4 4 8 4 18 8 7 2 4 3 7 2 5 4 6 6 4 4 3
21 21 23 25 29 29 27 27 20 10 12 9 3 2 5 6 3 3 4 1 3 2 4 3 3 4 5 6 5 3 4 4 18 7 8 4 2 2 3 3 2 4 5 5 1 2 6
19 21 20 23 26 29 27 25 22 10 10 7 4 3 4 3 2 2 4 3 4 7 3 4 4 13 4 3 3 4 3 4 9 9 13 8 3 5 5 5 3 3 5 7 7 3 4
18 22 19 20 22 26 26 24 22 15 10 3 5 4 4 4 5 3 2 4 4 6 8 8 4 3 4 4 4 4 3 3 6 7 4 4 4 1 4 7 5 6 7 8 9 15 8
20 21 20 19 20 22 25 25 21 19 6 14 4 4 8 7 6 4 3 2 5 4 6 5 6 3 4 4 3 6 6 3 4 0 3 1 2 1 5 6 7 6 10 12 15 15 18
22 18 19 18 19 20 21 22 21 18 13 8 5 4 3 6 5 3 2 2 3 2 3 6 2 5 9 3 6 6 6 12 8 7 3 5 4 1 5 4 6 5 8 11 5 6 7
25 19 18 16 19 18 18 19 19 16 13 8 11 4 3 3 2 2 2 2 3 3 2 4 7 4 3 3 6 9 13 9 7 4 8 5 4 3 3 5 2 5 2 6 10 7 9
24 19 17 18 14 17 16 16 17 14 11 6 7 4 2 4 4 4 8 1 2 4 2 2 3 4 3 3 3 2 1 2 1 3 5 4 4 0 1 2 6 3 2 3 4 6 5
19 14 15 19 12 13 14 14 14 16 10 4 3 6 2 5 3 5 3 4 4 1 3 1 3 2 2 2 2 4 4 3 3 2 3 5 3 2 2 2 3 4 2 4 4 4 5
16 11 11 16 17 10 15 12 11 12 14 9 3 5 2 5 7 4 4 2 2 3 2 2 4 2 2 2 2 3 2 1 4 6 4 4 3 5 4 3 7 8 4 6 2 4 6
13 10 10 14 14 13 12 14 11 10 11 10 8 7 5 6 21 20 14 6 3 1 3 4 4 1 2 3 3 3 1 2 1 3 5 6 6 3 4 4 7 7 4 3 5 7 6
13 11 10 11 15 18 10 12 13 11 11 11 14 9 8 11 14 16 19 20 18 9 3 5 1 4 7 3 2 2 2 2 2 3 3 4 6 4 7 5 5 6 9 15 15 13 12
Wind_Direction
347 346 339 335 333 335 334 333 328 324 321 322 317 301 293 302 302 299 305 307 306 310 249 255 261 225 213 220 234 170 198 181 179 193 193 197 188 187 175 186 237 236 259 250 246 267 276
350 342 334 336 341 341 335 328 331 326 330 328 323 322 318 301 302 303 301 295 299 302 255 229 249 204 204 235 230 226 186 178 183 186 195 193 190 200 209 191 169 264 229 245 265 251 252
345 341 342 343 341 328 330 334 334 332 329 331 327 317 309 304 297 297 302 299 296 292 274 231 245 205 207 224 191 205 180 191 190 192 188 189 176 185 193 144 202 202 150 323 249 241 254
341 341 343 340 331 336 339 340 336 335 331 330 322 317 314 312 308 306 303 298 292 285 273 222 222 192 216 231 198 195 195 175 172 188 191 188 196 192 185 146 74 133 73 310 262 265 253
341 343 339 340 336 341 340 338 339 339 337 333 330 325 323 318 314 311 306 299 291 285 275 223 245 171 213 209 198 181 191 178 183 190 182 192 188 165 158 135 46 19 209 232 305 221 232
343 343 339 340 338 340 339 339 339 335 333 335 335 328 322 321 316 322 310 305 298 271 245 226 252 157 216 201 191 187 183 187 171 159 141 136 137 142 125 156 194 198 218 263 241 315 353
342 343 339 341 338 339 339 339 338 334 334 331 328 326 321 322 319 316 316 332 350 192 195 202 186 217 260 179 185 188 181 169 169 147 148 86 115 164 194 219 95 102 176 253 273 284 323
345 344 340 339 337 341 339 340 335 336 333 329 323 323 322 323 324 315 340 16 329 18 278 224 199 269 183 163 164 187 180 154 153 126 113 110 198 166 171 200 197 291 289 281 277 257 273
346 346 343 338 341 343 341 341 339 338 336 329 325 326 325 323 323 325 344 349 320 322 264 233 213 191 145 160 158 185 174 149 130 130 127 144 200 194 171 179 199 182 194 236 260 317 332
347 345 344 339 344 344 340 340 339 338 335 336 331 323 322 321 314 283 341 339 357 353 86 171 201 188 172 140 101 171 163 133 130 152 123 175 213 150 157 170 144 161 125 108 49 29 263
347 350 348 346 347 344 344 342 339 335 333 329 320 313 311 309 284 284 274 343 84 156 121 181 152 149 162 174 140 173 140 114 141 149 141 223 146 128 130 171 142 167 98 80 64 59 4
350 351 356 349 348 347 346 346 340 339 332 322 313 304 303 303 314 233 227 242 176 46 248 159 133 149 121 126 62 152 146 83 100 116 43 94 110 95 152 87 110 134 72 40 51 61 329
355 352 353 350 348 348 348 345 343 339 333 331 346 344 324 337 61 166 153 151 63 152 277 117 134 145 121 108 113 143 158 111 139 131 143 315 26 50 106 88 48 86 69 341 348 0 229
355 357 357 352 349 348 351 345 345 341 345 357 15 19 52 74 102 138 128 348 76 188 277 129 131 115 98 124 129 138 153 122 67 81 101 136 279 185 196 151 163 161 147 169 244 229 283
357 358 359 355 350 351 351 350 349 356 6 48 49 75 70 74 103 104 258 49 328 311 10 130 107 95 112 67 123 134 147 164 190 165 135 133 328 133 132 121 124 216 149 184 105 19 27
357 359 358 357 351 355 355 355 0 15 52 56 64 64 71 96 99 11 29 301 264 225 114 115 90 138 139 122 111 128 164 200 204 195 167 192 85 75 71 86 98 138 162 60 4 21 275
357 1 360 1 359 359 0 5 14 51 55 45 72 58 72 42 343 332 328 355 319 81 62 30 133 118 119 129 117 140 184 256 180 206 158 131 100 310 99 203 177 133 253 61 113 164 203
354 0 0 4 3 4 8 15 23 47 45 45 52 67 33 19 10 304 6 357 317 279 292 250 117 86 135 110 142 163 187 249 187 150 154 222 109 160 209 225 172 165 186 154 135 251 231
349 359 358 2 3 8 11 18 22 32 18 357 60 60 1 3 42 4 303 244 241 297 280 6 125 132 144 140 132 182 144 311 175 154 158 168 63 53 21 49 107 205 201 189 164 92 204
346 352 354 358 357 6 14 14 19 12 2 15 7 24 356 347 46 355 6 2 359 333 298 55 81 123 116 119 101 143 106 48 152 165 172 115 148 164 184 202 146 203 205 199 186 198 239
343 346 351 353 355 2 11 13 17 14 25 26 27 14 357 329 5 24 16 320 346 17 353 33 54 128 127 115 97 104 101 92 43 129 117 113 184 111 259 245 230 221 224 210 203 232 249
339 340 347 354 351 359 3 14 16 20 35 58 64 358 346 306 314 328 354 333 341 356 28 9 91 80 101 82 206 169 129 134 181 346 99 25 161 22 279 262 230 245 242 231 236 249 255
340 335 348 346 347 352 359 8 19 22 30 62 53 51 18 304 323 356 277 288 23 348 37 55 202 94 69 49 51 104 141 173 169 148 127 131 143 82 269 329 311 279 230 201 196 214 204
339 328 337 345 341 346 354 360 12 24 34 45 19 10 334 277 298 286 312 79 33 4 149 14 63 84 126 106 99 85 71 67 144 152 141 143 117 131 261 344 259 253 286 196 201 241 220
327 318 328 330 338 340 348 353 1 15 26 58 34 25 328 279 267 308 353 258 83 59 53 69 54 94 137 106 72 99 79 43 263 178 157 138 137 216 198 245 283 281 182 152 190 283 216
310 311 322 326 328 330 338 346 355 360 15 15 14 343 343 306 241 297 272 234 176 225 346 109 121 97 123 89 112 171 193 154 170 150 115 145 116 157 201 273 261 252 101 119 118 290 220
297 296 316 324 337 331 330 333 347 344 347 359 294 290 297 280 279 280 246 234 314 158 171 202 163 143 165 110 143 187 225 39 169 177 175 174 199 217 212 262 283 253 223 148 46 254 208
294 298 315 322 332 336 327 328 333 337 333 341 332 309 301 256 267 265 267 274 263 250 163 175 103 219 86 161 159 190 153 219 207 179 181 178 174 185 183 216 266 185 120 179 237 301 287
310 299 282 311 317 325 312 308 315 323 322 316 302 312 291 256 261 263 257 251 244 240 275 211 246 165 175 116 206 148 193 132 213 242 200 209 196 183 191 213 242 210 262 285 286 295 303
Height
1532 1529 1525 1520 1517 1512 1507 1502 1498 1493 1488 1484 1481 1477 1475 1473 1472 1470 1468 1467 1464 1462 1462 1463 1463 1463 1467 1470 1465 1463 1463 1467 1472 1476 1479 1482 1487 1490 1493 1493 1496 1496 1495 1494 1495 1496 1496
1531 1527 1522 1517 1512 1508 1504 1499 1494 1489 1484 1479 1476 1473 1472 1470 1467 1465 1463 1462 1459 1457 1456 1458 1460 1459 1463 1467 1463 1463 1464 1466 1470 1474 1476 1480 1485 1488 1489 1490 1494 1492 1492 1492 1493 1494 1494
1528 1525 1519 1516 1511 1505 1500 1495 1490 1485 1480 1475 1471 1468 1466 1464 1462 1460 1457 1456 1454 1453 1451 1453 1455 1455 1458 1459 1460 1462 1464 1466 1469 1472 1474 1479 1483 1486 1488 1489 1490 1491 1492 1492 1491 1491 1491
1525 1521 1517 1513 1507 1502 1496 1492 1487 1481 1476 1471 1467 1464 1461 1459 1456 1455 1453 1450 1449 1448 1447 1450 1452 1452 1455 1456 1459 1460 1463 1467 1469 1471 1475 1479 1482 1485 1486 1487 1489 1491 1493 1498 1489 1487 1487
1523 1518 1513 1509 1504 1499 1495 1489 1484 1479 1474 1469 1465 1461 1458 1456 1453 1450 1448 1445 1444 1444 1444 1447 1450 1450 1452 1453 1454 1458 1461 1465 1468 1469 1474 1478 1482 1484 1486 1488 1494 1496 1502 1500 1494 1483 1485
1522 1517 1512 1506 1502 1496 1491 1486 1481 1476 1472 1467 1462 1459 1456 1453 1450 1447 1444 1442 1440 1439 1441 1445 1446 1450 1447 1447 1451 1456 1460 1464 1466 1469 1474 1477 1481 1484 1485 1486 1498 1498 1501 1497 1497 1485 1483
1520 1515 1510 1505 1498 1493 1487 1483 1479 1473 1469 1464 1460 1456 1453 1450 1447 1444 1441 1439 1440 1440 1438 1438 1439 1440 1440 1445 1451 1456 1459 1463 1466 1468 1473 1476 1479 1481 1484 1485 1486 1488 1494 1497 1492 1485 1486
1517 1512 1507 1502 1496 1490 1485 1480 1474 1469 1465 1461 1457 1453 1450 1447 1445 1442 1440 1440 1440 1441 1439 1438 1440 1440 1438 1444 1450 1455 1459 1462 1464 1468 1471 1480 1481 1480 1483 1484 1487 1490 1496 1498 1491 1486 1486
1515 1510 1505 1499 1493 1487 1482 1476 1471 1465 1461 1456 1453 1450 1447 1444 1443 1441 1439 1439 1438 1439 1441 1440 1438 1442 1444 1447 1449 1453 1458 1459 1464 1469 1472 1479 1477 1479 1482 1485 1489 1493 1494 1494 1494 1489 1487
1512 1507 1502 1497 1490 1485 1479 1473 1468 1462 1457 1453 1449 1446 1444 1442 1442 1440 1439 1438 1437 1439 1445 1438 1439 1441 1445 1446 1452 1455 1458 1462 1466 1470 1473 1476 1474 1475 1483 1485 1486 1492 1490 1490 1492 1495 1502
1510 1506 1500 1494 1488 1482 1477 1471 1465 1459 1454 1449 1444 1441 1439 1438 1434 1437 1439 1438 1437 1439 1438 1435 1437 1440 1443 1446 1448 1456 1458 1462 1467 1470 1474 1478 1475 1478 1482 1483 1483 1489 1489 1491 1493 1501 1504
1510 1505 1499 1493 1486 1481 1474 1468 1462 1455 1449 1443 1438 1433 1431 1430 1428 1432 1436 1437 1438 1442 1439 1431 1432 1437 1444 1448 1451 1456 1461 1464 1467 1468 1474 1475 1475 1477 1479 1481 1481 1486 1492 1498 1501 1508 1526
1509 1503 1498 1492 1485 1479 1473 1466 1459 1451 1445 1437 1431 1426 1425 1426 1429 1431 1435 1438 1444 1444 1439 1430 1431 1437 1444 1450 1454 1458 1464 1466 1471 1478 1481 1478 1479 1479 1478 1485 1486 1489 1500 1524 1528 1538 1509
1507 1501 1496 1491 1484 1477 1471 1464 1456 1448 1440 1434 1431 1424 1425 1428 1431 1434 1437 1441 1439 1432 1425 1426 1433 1439 1446 1451 1457 1460 1464 1468 1469 1472 1479 1489 1496 1482 1480 1482 1487 1493 1498 1515 1500 1516 1504
1507 1500 1495 1489 1483 1476 1470 1462 1455 1446 1439 1436 1434 1430 1430 1433 1437 1439 1441 1437 1438 1434 1426 1430 1439 1446 1450 1454 1456 1460 1463 1467 1469 1470 1480 1492 1486 1478 1478 1479 1483 1495 1507 1498 1510 1510 1526
1506 1501 1495 1490 1482 1476 1468 1462 1455 1448 1443 1442 1438 1436 1438 1440 1442 1442 1442 1437 1438 1437 1430 1434 1443 1448 1453 1456 1458 1460 1466 1465 1467 1468 1470 1473 1487 1477 1480 1482 1485 1490 1492 1510 1525 1535 1511
1505 1500 1495 1490 1482 1476 1469 1462 1457 1450 1448 1446 1443 1442 1447 1446 1445 1446 1442 1441 1438 1436 1437 1435 1442 1446 1451 1452 1459 1463 1466 1463 1464 1465 1468 1469 1479 1485 1482 1486 1488 1492 1499 1498 1504 1512 1517
1505 1499 1495 1491 1484 1476 1470 1464 1458 1454 1450 1449 1446 1449 1447 1448 1447 1444 1443 1444 1442 1440 1436 1436 1436 1441 1448 1451 1458 1460 1464 1460 1459 1462 1469 1467 1478 1500 1486 1481 1481 1484 1488 1493 1515 1510 1511
1505 1500 1495 1491 1485 1478 1471 1466 1461 1456 1453 1450 1450 1451 1448 1449 1449 1448 1445 1441 1441 1438 1436 1432 1434 1437 1443 1451 1458 1457 1457 1456 1457 1462 1465 1466 1479 1500 1486 1483 1482 1484 1484 1485 1489 1496 1510
1503 1500 1495 1491 1487 1481 1473 1467 1463 1458 1456 1453 1451 1454 1451 1448 1449 1449 1446 1445 1441 1437 1435 1433 1435 1437 1442 1447 1448 1456 1457 1457 1459 1460 1463 1466 1478 1487 1490 1488 1480 1488 1479 1481 1485 1491 1481
1502 1498 1495 1491 1487 1482 1476 1469 1465 1461 1457 1457 1456 1457 1458 1456 1450 1449 1448 1446 1443 1441 1437 1436 1440 1441 1442 1447 1451 1457 1458 1460 1461 1461 1464 1468 1484 1485 1479 1477 1478 1477 1475 1476 1481 1472 1476
1502 1497 1493 1491 1487 1482 1477 1472 1467 1463 1460 1459 1461 1461 1458 1454 1452 1451 1449 1447 1446 1443 1442 1444 1445 1444 1443 1448 1449 1455 1456 1460 1461 1464 1466 1468 1478 1481 1479 1474 1473 1475 1468 1468 1466 1464 1460
1501 1496 1492 1490 1487 1483 1478 1473 1469 1465 1463 1463 1464 1463 1463 1458 1454 1453 1451 1447 1447 1445 1446 1446 1446 1446 1449 1451 1450 1450 1451 1453 1456 1461 1467 1471 1479 1483 1492 1471 1471 1469 1456 1455 1455 1453 1451
1500 1496 1491 1488 1487 1483 1479 1475 1471 1468 1466 1466 1466 1466 1465 1460 1457 1453 1449 1448 1448 1448 1448 1448 1447 1447 1452 1452 1453 1453 1454 1456 1457 1459 1461 1470 1477 1487 1492 1476 1477 1442 1438 1439 1444 1440 1440
1499 1495 1490 1487 1485 1483 1479 1476 1472 1469 1467 1466 1466 1466 1466 1463 1457 1452 1451 1450 1449 1449 1449 1449 1450 1450 1451 1451 1456 1458 1459 1461 1460 1461 1463 1464 1471 1487 1484 1482 1457 1436 1436 1438 1441 1436 1430
1494 1492 1489 1485 1483 1481 1479 1476 1473 1470 1468 1466 1465 1464 1464 1464 1456 1453 1450 1449 1451 1451 1451 1450 1451 1451 1451 1453 1457 1460 1456 1454 1461 1462 1463 1465 1466 1473 1472 1471 1460 1439 1434 1435 1437 1441 1426
1489 1488 1487 1483 1480 1479 1477 1474 1473 1471 1468 1466 1464 1463 1463 1463 1455 1454 1450 1447 1447 1448 1450 1449 1449 1451 1452 1455 1458 1461 1462 1454 1458 1458 1461 1463 1465 1465 1465 1464 1456 1436 1434 1435 1439 1438 1425
1486 1484 1483 1481 1478 1476 1474 1472 1470 1469 1468 1466 1465 1463 1461 1458 1449 1450 1451 1448 1446 1447 1448 1447 1450 1450 1454 1455 1457 1455 1455 1453 1454 1452 1456 1456 1460 1458 1463 1464 1461 1431 1435 1436 1429 1423 1424
1483 1481 1480 1478 1476 1473 1471 1469 1467 1466 1465 1463 1462 1461 1459 1457 1447 1444 1442 1443 1445 1445 1447 1445 1445 1444 1445 1452 1455 1453 1452 1453 1456 1446 1450 1452 1448 1450 1450 1444 1429 1429 1427 1426 1424 1422 1421